sat.trackr.live / text

‹ back to catalog

STARLINK-11132 [DTC]

NORAD 59755 · 2024-091C

PAYLOAD ACTIVE UNKNOWN

§ Identity

Operator
Country
US
Launch date
2024-05-14
Launch site
AFWTR
Launch vehicle
Mass (kg)
RCS (m²)

Purposes: comms

External: N2YO · Heavens-Above · Gunter

§ Orbital elements

Epoch: 2026-09-21T10:19:13.019520Z

Period
91.74 min
Inclination
53.1590°
Eccentricity
0.0001177
Mean motion
15.69706481 rev/d
Perigee alt
358.9 km
Apogee alt
360.5 km
Semi-major
6,737.9 km
B*
3.1683e-6
RAAN
321.5495°
Arg perigee
64.1339°
Mean anomaly
295.9800°
Rev number
13,625

§ Raw data

STARLINK-11132 [DTC]1 59755U 24091C   26264.43001180 -.00000205  00000+0  31683-5 0  99972 59755  53.1590 321.5495 0001177  64.1339 295.9800 15.69706481136254

JSON: /api/v1/satellites/59755 · /tle

For live sub-satellite position, see the globe view (requires WebGL).

§ Visibility from observer

Set your observer location to see the next 7 days of passes ≥ 10°. The values pass through the URL so the page stays shareable.

No JS? Fill the form by hand. The geolocation button needs JavaScript.